EW6167 Weather Reports


Display with metric or nautical units.
time (UTC)temp
F
wind
direction
speed
MPH
gust
MPH
rain 1hr
in
rain 24hr
in
rain mn
in
humidity
%
barometer
mb
20260505203530 46 317 17.0 0.0 0.00 0.00 0.00 41 1011.8
20260505203052 45 301 17.0 0.0 0.00 0.00 0.00 39 1012.0
20260505202515 45 333 18.0 0.0 0.00 0.00 0.00 42 1012.3
20260505202032 44 323 21.0 0.0 0.00 0.00 0.00 39 1012.2
20260505201552 45 323 20.0 0.0 0.00 0.00 0.00 39 1012.2
20260505201004 45 315 19.0 0.0 0.00 0.00 0.00 40 1012.3
20260505200521 44 315 18.0 0.0 0.00 0.00 0.00 41 1012.2
20260505200037 43 306 19.0 0.0 0.00 0.00 0.00 42 1012.2
20260505195554 44 303 19.0 0.0 0.00 0.00 0.00 41 1012.3
20260505195009 44 321 19.0 0.0 0.00 0.00 0.00 40 1012.2
20260505194529 44 317 19.0 0.0 0.00 0.00 0.00 40 1012.2
20260505194048 44 312 19.0 0.0 0.00 0.00 0.00 39 1012.1
20260505193502 44 329 19.0 0.0 0.00 0.00 0.00 41 1012.0
20260505193031 45 319 19.0 0.0 0.00 0.00 0.00 40 1012.0
20260505192544 44 315 20.0 0.0 0.00 0.00 0.00 41 1012.0
20260505192104 44 351 21.0 0.0 0.00 0.00 0.00 41 1012.0
20260505191522 44 321 21.0 0.0 0.00 0.00 0.00 41 1011.8
20260505191037 44 332 21.0 0.0 0.00 0.00 0.00 41 1011.8
20260505190603 45 322 21.0 0.0 0.00 0.00 0.00 42 1011.7
20260505190016 45 331 21.0 0.0 0.00 0.00 0.00 40 1011.8
20260505185535 45 336 19.0 0.0 0.00 0.00 0.00 40 1011.7
20260505185100 45 325 17.0 0.0 0.00 0.00 0.00 39 1011.6
20260505184515 45 343 17.0 0.0 0.00 0.00 0.00 38 1011.5
20260505184041 46 344 18.0 0.0 0.00 0.00 0.00 38 1011.5
20260505183604 46 329 17.0 0.0 0.00 0.00 0.00 38 1011.6
20260505183024 47 327 17.0 0.0 0.00 0.00 0.00 38 1011.5
20260505182541 46 355 17.0 0.0 0.00 0.00 0.00 38 1011.5
20260505182101 47 338 17.0 0.0 0.00 0.00 0.00 38 1011.5
20260505181516 46 323 18.0 0.0 0.00 0.00 0.00 38 1011.5
20260505181036 47 341 18.0 0.0 0.00 0.00 0.00 36 1011.4
20260505180556 46 355 17.0 0.0 0.00 0.00 0.00 37 1011.4
20260505180008 46 306 18.0 0.0 0.00 0.00 0.00 36 1011.4
20260505175527 46 321 16.0 0.0 0.00 0.00 0.00 38 1011.3
20260505175044 46 323 15.0 0.0 0.00 0.00 0.00 39 1011.3
20260505174559 45 332 14.0 0.0 0.00 0.00 0.00 39 1011.5
20260505174014 45 328 15.0 0.0 0.00 0.00 0.00 38 1011.7
20260505173531 45 338 14.0 0.0 0.00 0.00 0.00 39 1011.7
20260505173048 45 325 13.0 0.0 0.00 0.00 0.00 40 1011.7
20260505172507 45 327 13.0 0.0 0.00 0.00 0.00 40 1011.6
20260505172018 45 314 12.0 0.0 0.00 0.00 0.00 41 1011.7
20260505171536 44 350 11.0 0.0 0.00 0.00 0.00 42 1011.8
20260505171055 44 312 11.0 0.0 0.00 0.00 0.00 42 1011.8
20260505170512 43 24 10.0 0.0 0.00 0.00 0.00 42 1011.9
20260505170030 43 355 10.0 0.0 0.00 0.00 0.00 44 1012.0
20260505165543 43 355 11.0 0.0 0.00 0.00 0.00 43 1012.1
20260505165105 42 9 11.0 0.0 0.00 0.00 0.00 44 1012.0
20260505164518 42 355 13.0 0.0 0.00 0.00 0.00 45 1012.0
20260505164036 43 30 13.0 0.0 0.00 0.00 0.00 45 1012.0
20260505163554 42 5 12.0 0.0 0.00 0.00 0.00 44 1012.0
20260505163016 42 360 12.0 0.0 0.00 0.00 0.00 45 1012.0
20260505162534 43 355 11.0 0.0 0.00 0.00 0.00 45 1012.0
20260505162053 42 333 11.0 0.0 0.00 0.00 0.00 45 1011.9
20260505161510 42 5 10.0 0.0 0.00 0.00 0.00 48 1012.1
20260505161026 42 355 11.0 0.0 0.00 0.00 0.00 49 1012.0
20260505160546 41 355 11.0 0.0 0.00 0.00 0.00 49 1012.1
20260505153009 39 346 11.0 0.0 0.00 0.00 0.00 55 1012.2
20260505152535 39 333 11.0 0.0 0.00 0.00 0.00 54 1012.2
20260505152055 39 329 10.0 0.0 0.00 0.00 0.00 56 1012.3
20260505151510 38 337 11.0 0.0 0.00 0.00 0.00 55 1012.3
20260505151030 38 344 12.0 0.0 0.00 0.00 0.00 55 1012.4
20260505150551 38 334 12.0 0.0 0.00 0.00 0.00 55 1012.5
20260505140535 36 355 4.0 0.0 0.00 0.00 0.00 60 1012.5
20260505125010 29 5 2.0 0.0 0.00 0.00 0.00 73 1012.1
20260505124541 29 5 1.0 0.0 0.00 0.00 0.00 73 1012.0
20260505124049 29 5 1.0 0.0 0.00 0.00 0.00 73 1012.0
20260505123505 29 5 1.0 0.0 0.00 0.00 0.00 73 1012.0
20260505123023 28 5 1.0 0.0 0.00 0.00 0.00 74 1012.0
20260505122544 28 5 1.0 0.0 0.00 0.00 0.00 74 1012.0
20260505122059 28 5 1.0 0.0 0.00 0.00 0.00 75 1012.0
20260505121517 28 5 1.0 0.0 0.00 0.00 0.00 76 1011.9
20260505121044 27 5 2.0 0.0 0.00 0.00 0.00 75 1011.8
20260505120604 27 5 1.0 0.0 0.00 0.00 0.00 76 1011.7
20260505120016 27 5 2.0 0.0 0.00 0.00 0.00 75 1011.7
20260505115532 27 5 2.0 0.0 0.00 0.00 0.00 75 1011.5
20260505115052 27 5 2.0 0.0 0.00 0.00 0.00 73 1011.5
20260505114504 28 5 2.0 0.0 0.00 0.00 0.00 72 1011.4
20260505114023 29 5 2.0 0.0 0.00 0.00 0.00 72 1011.5
20260505113548 29 5 2.0 0.0 0.00 0.00 0.00 73 1011.5
20260505113007 29 5 1.0 0.0 0.00 0.00 0.00 73 1011.5
20260505112528 29 5 1.0 0.0 0.00 0.00 0.00 74 1011.6
20260505112043 29 5 2.0 0.0 0.00 0.00 0.00 74 1011.6
20260505111506 29 5 2.0 0.0 0.00 0.00 0.00 74 1011.7
20260505111031 29 5 2.0 0.0 0.00 0.00 0.00 74 1011.7
20260505110548 29 5 2.0 0.0 0.00 0.00 0.00 72 1011.6
20260505102022 31 5 1.0 0.0 0.00 0.00 0.00 70 1011.8
20260505101543 31 5 1.0 0.0 0.00 0.00 0.00 69 1011.9
20260505101100 32 5 1.0 0.0 0.00 0.00 0.00 69 1011.9
20260505100522 32 5 1.0 0.0 0.00 0.00 0.00 68 1012.0
20260505100038 32 5 2.0 0.0 0.00 0.00 0.00 68 1012.0
20260505095556 32 5 3.0 0.0 0.00 0.00 0.00 69 1012.1
20260505095013 32 5 3.0 0.0 0.00 0.00 0.00 70 1012.1
20260505094534 32 5 3.0 0.0 0.00 0.00 0.00 70 1012.1
20260505094050 31 5 3.0 0.0 0.00 0.00 0.00 71 1012.2
20260505093510 31 5 3.0 0.0 0.00 0.00 0.00 70 1012.1
20260505093031 31 5 3.0 0.0 0.00 0.00 0.00 69 1012.2
20260505092548 32 5 3.0 0.0 0.00 0.00 0.00 69 1012.2
20260505092003 32 5 3.0 0.0 0.00 0.00 0.00 68 1012.2
20260505091517 32 5 3.0 0.0 0.00 0.00 0.00 67 1012.2
20260505091034 33 5 3.0 0.0 0.00 0.00 0.00 66 1012.1
20260505090549 33 5 4.0 0.0 0.00 0.00 0.00 65 1012.2
20260505090106 34 5 4.0 0.0 0.00 0.00 0.00 64 1012.2
20260505085518 34 360 5.0 0.0 0.00 0.00 0.00 64 1012.2
20260505085036 34 17 5.0 0.0 0.00 0.00 0.00 64 1012.2
20260505084553 35 13 5.0 0.0 0.00 0.00 0.00 64 1012.1
20260505084004 35 13 5.0 0.0 0.00 0.00 0.00 63 1012.1
20260505083518 35 12 6.0 0.0 0.00 0.00 0.00 62 1012.1
20260505083037 36 9 8.0 0.0 0.00 0.00 0.00 60 1012.1
20260505082550 37 355 10.0 0.0 0.00 0.00 0.00 58 1012.1
20260505082009 38 344 12.0 0.0 0.00 0.00 0.00 57 1012.1
20260505081526 38 340 14.0 0.0 0.00 0.00 0.00 57 1012.1
20260505081045 38 338 14.0 0.0 0.00 0.00 0.00 57 1012.1
20260505080604 38 336 15.0 0.0 0.00 0.00 0.00 57 1012.1
20260505080010 39 336 16.0 0.0 0.00 0.00 0.00 56 1012.2
20260505075528 39 338 16.0 0.0 0.00 0.00 0.00 56 1012.2
20260505075045 39 343 16.0 0.0 0.00 0.00 0.00 57 1012.2
20260505074601 39 327 16.0 0.0 0.00 0.00 0.00 57 1012.2
20260505074015 39 339 16.0 0.0 0.00 0.00 0.00 57 1012.1
20260505073534 39 331 15.0 0.0 0.00 0.00 0.00 58 1012.1
20260505073049 39 336 14.0 0.0 0.00 0.00 0.00 58 1012.3
20260505072503 39 326 14.0 0.0 0.00 0.00 0.00 59 1012.3
20260505072021 39 334 14.0 0.0 0.00 0.00 0.00 59 1012.3
20260505071537 39 331 14.0 0.0 0.00 0.00 0.00 59 1012.1
20260505071058 39 342 13.0 0.0 0.00 0.00 0.00 59 1012.2
20260505070519 39 329 13.0 0.0 0.00 0.00 0.00 60 1012.1
20260505070043 39 337 13.0 0.0 0.00 0.00 0.00 60 1012.2
20260505065550 39 341 15.0 0.0 0.00 0.00 0.00 60 1012.1
20260505065006 39 323 16.0 0.0 0.00 0.00 0.00 60 1011.8
20260505064524 39 334 17.0 0.0 0.00 0.00 0.00 60 1011.9
20260505064041 39 314 16.0 0.0 0.00 0.00 0.00 61 1011.8
20260505063557 39 325 15.0 0.0 0.00 0.00 0.00 61 1011.8
20260505063013 39 332 14.0 0.0 0.00 0.00 0.00 61 1011.8
20260505062529 39 315 14.0 0.0 0.00 0.00 0.00 61 1011.7
20260505062049 39 306 15.0 0.0 0.00 0.00 0.00 62 1011.8
20260505061603 39 318 16.0 0.0 0.00 0.00 0.00 62 1011.7
20260505061014 39 322 17.0 0.0 0.00 0.00 0.00 61 1011.7
20260505060529 39 315 16.0 0.0 0.00 0.00 0.00 61 1011.6
20260505060046 39 331 16.0 0.0 0.00 0.00 0.00 61 1011.5
20260505055600 39 327 17.0 0.0 0.00 0.00 0.00 61 1011.6
20260505055010 40 320 17.0 0.0 0.00 0.00 0.00 61 1011.3
20260505054528 40 327 16.0 0.0 0.00 0.00 0.00 62 1011.4
20260505054044 40 325 17.0 0.0 0.00 0.00 0.00 62 1011.4
20260505053559 40 317 18.0 0.0 0.00 0.00 0.00 62 1011.3
20260505053009 40 329 19.0 0.0 0.00 0.00 0.00 62 1011.3
20260505052524 40 327 19.0 0.0 0.00 0.00 0.00 62 1011.2
20260505052042 41 336 19.0 0.0 0.00 0.00 0.00 63 1011.3
20260505051559 41 329 20.0 0.0 0.00 0.00 0.00 63 1011.3
20260505051015 41 309 19.0 0.0 0.00 0.00 0.00 63 1011.2
20260505050529 41 323 19.0 0.0 0.00 0.00 0.00 62 1011.4
20260505041513 42 329 18.0 0.0 0.00 0.00 0.00 59 1010.8
20260505041026 42 325 18.0 0.0 0.00 0.00 0.00 59 1010.6
20260505040545 42 323 18.0 0.0 0.00 0.00 0.00 58 1010.7
20260505040105 43 327 19.0 0.0 0.00 0.00 0.00 58 1010.6
20260505035510 43 330 18.0 0.0 0.00 0.00 0.00 57 1010.4
20260505035029 43 329 18.0 0.0 0.00 0.00 0.00 57 1010.3
20260505034554 43 328 18.0 0.0 0.00 0.00 0.00 57 1010.3
20260505034101 43 327 19.0 0.0 0.00 0.00 0.00 56 1010.1
20260505033521 43 315 19.0 0.0 0.00 0.00 0.00 56 1010.0
20260505033028 44 320 18.0 0.0 0.00 0.00 0.00 55 1009.8
20260505032545 44 321 18.0 0.0 0.00 0.00 0.00 55 1009.7
20260505032002 44 333 17.0 0.0 0.00 0.00 0.00 54 1009.7
20260505031518 44 326 17.0 0.0 0.00 0.00 0.00 54 1009.7
20260505031037 44 320 18.0 0.0 0.00 0.00 0.00 54 1009.6
20260505030547 44 304 18.0 0.0 0.00 0.00 0.00 54 1009.6
20260505030104 44 313 17.0 0.0 0.00 0.00 0.00 54 1009.3
20260505025518 44 319 17.0 0.0 0.00 0.00 0.00 54 1009.3
20260505025033 44 317 18.0 0.0 0.00 0.00 0.00 54 1009.2
20260505024551 44 315 20.0 0.0 0.00 0.00 0.00 54 1008.9
20260505024003 44 316 21.0 0.0 0.00 0.00 0.00 54 1008.9
20260505023522 45 328 20.0 0.0 0.00 0.00 0.00 54 1008.8
20260505023046 45 311 19.0 0.0 0.00 0.00 0.00 54 1008.8
20260505022557 45 315 20.0 0.0 0.00 0.00 0.00 54 1008.7
20260505022010 45 313 20.0 0.0 0.00 0.00 0.00 53 1008.7
20260505021524 45 301 20.0 0.0 0.00 0.00 0.00 53 1008.7
20260505021042 46 323 19.0 0.0 0.00 0.00 0.00 52 1008.6
20260505020558 46 317 18.0 0.0 0.00 0.00 0.00 52 1008.7
20260505020014 46 311 18.0 0.0 0.00 0.00 0.00 52 1008.6
20260505015531 46 309 19.0 0.0 0.00 0.00 0.00 52 1008.5
20260505015052 46 329 21.0 0.0 0.00 0.00 0.00 52 1008.5
20260505014507 46 336 21.0 0.0 0.00 0.00 0.00 52 1008.2
20260505014022 46 319 22.0 0.0 0.00 0.00 0.00 52 1008.0
20260505013538 46 331 23.0 0.0 0.00 0.00 0.00 52 1007.9
20260505013055 46 320 24.0 0.0 0.00 0.00 0.00 51 1007.8
20260505012505 47 305 25.0 0.0 0.00 0.00 0.00 50 1007.9
20260505012026 47 321 26.0 0.0 0.00 0.00 0.00 50 1007.7
20260505011603 47 309 25.0 0.0 0.00 0.00 0.00 49 1007.4
20260505011058 48 330 24.0 0.0 0.00 0.00 0.00 49 1007.6
20260505010505 48 316 24.0 0.0 0.00 0.00 0.00 50 1007.5
20260505010021 48 323 23.0 0.0 0.00 0.00 0.00 50 1007.5
20260505005540 48 325 23.0 0.0 0.00 0.00 0.00 50 1007.3
20260505005100 49 330 23.0 0.0 0.00 0.00 0.00 48 1007.4
20260505004514 49 320 23.0 0.0 0.00 0.00 0.00 47 1007.6
20260505004033 50 327 23.0 0.0 0.00 0.00 0.00 47 1007.5
20260505003548 50 315 24.0 0.0 0.00 0.00 0.00 46 1007.1
20260505003104 50 331 23.0 0.0 0.00 0.00 0.00 46 1007.3
20260505002522 51 323 22.0 0.0 0.00 0.00 0.00 45 1007.2
20260505002036 51 337 21.0 0.0 0.00 0.00 0.00 46 1007.1
20260505001605 51 321 21.0 0.0 0.00 0.00 0.00 46 1007.1
20260505001105 52 325 20.0 0.0 0.00 0.00 0.00 46 1007.0
20260505000516 52 327 19.0 0.0 0.00 0.00 0.00 45 1007.1
20260505000037 52 327 18.0 0.0 0.00 0.00 0.00 46 1007.1
20260504235545 52 338 19.0 0.0 0.00 0.00 0.00 45 1007.0
20260504235007 52 336 19.0 0.0 0.00 0.00 0.00 45 1006.9
20260504234520 52 336 19.0 0.0 0.00 0.00 0.00 45 1006.9
20260504234036 52 328 19.0 0.0 0.00 0.00 0.00 45 1006.8
20260504233554 53 325 19.0 0.0 0.00 0.00 0.00 45 1006.7
20260504233012 53 329 18.0 0.0 0.00 0.00 0.00 45 1006.7
20260504232525 53 337 19.0 0.0 0.00 0.00 0.00 45 1006.7
20260504232044 53 349 20.0 0.0 0.00 0.00 0.00 45 1006.6
20260504231502 53 330 20.0 0.0 0.00 0.00 0.00 45 1006.5
20260504231019 53 338 19.0 0.0 0.00 0.00 0.00 44 1006.7
20260504230533 53 331 19.0 0.0 0.00 0.00 0.00 46 1006.5
20260504230051 53 323 19.0 0.0 0.00 0.00 0.00 44 1006.5
20260504225502 55 337 17.0 0.0 0.00 0.00 0.00 42 1006.4
20260504225015 56 340 17.0 0.0 0.00 0.00 0.00 42 1006.3
20260504224533 56 321 17.0 0.0 0.00 0.00 0.00 42 1006.2
20260504224054 56 331 16.0 0.0 0.00 0.00 0.00 43 1006.1
20260504223507 56 355 15.0 0.0 0.00 0.00 0.00 42 1006.0
20260504223025 56 351 14.0 0.0 0.00 0.00 0.00 43 1006.0
20260504222537 56 339 16.0 0.0 0.00 0.00 0.00 42 1006.2
20260504222052 57 355 15.0 0.0 0.00 0.00 0.00 43 1006.1
20260504221508 57 340 17.0 0.0 0.00 0.00 0.00 42 1006.2
20260504221025 56 326 16.0 0.0 0.00 0.00 0.00 41 1006.2
20260504220540 56 321 15.0 0.0 0.00 0.00 0.00 42 1006.2
20260504220104 56 323 15.0 0.0 0.00 0.00 0.00 41 1006.2
20260504215514 57 342 16.0 0.0 0.00 0.00 0.00 40 1006.3
20260504215031 56 329 15.0 0.0 0.00 0.00 0.00 42 1006.4
20260504214547 57 5 16.0 0.0 0.00 0.00 0.00 40 1006.3
20260504214005 56 321 16.0 0.0 0.00 0.00 0.00 43 1006.4
20260504213517 56 346 17.0 0.0 0.00 0.00 0.00 41 1006.5
20260504213034 57 344 17.0 0.0 0.00 0.00 0.00 40 1006.6
20260504212548 57 338 17.0 0.0 0.00 0.00 0.00 41 1006.6
20260504212107 57 329 16.0 0.0 0.00 0.00 0.00 41 1006.4
20260504211515 57 335 16.0 0.0 0.00 0.00 0.00 41 1006.6
20260504211033 57 336 16.0 0.0 0.00 0.00 0.00 41 1006.8
20260504210550 57 5 15.0 0.0 0.00 0.00 0.00 40 1006.8
20260504210106 58 331 15.0 0.0 0.00 0.00 0.00 41 1006.7
20260504205517 57 332 15.0 0.0 0.00 0.00 0.00 41 1006.8
20260504205034 56 5 15.0 0.0 0.00 0.00 0.00 42 1006.8
20260504204548 57 16 15.0 0.0 0.00 0.00 0.00 40 1006.8
20260504204002 56 349 14.0 0.0 0.00 0.00 0.00 42 1006.7